Regional Weather Roundup
Issued by NWS Upton, NY

Current Version | Previous Version | Graphics & Text | Print | Product List | Glossary Off
Versions: 1 2 3 4 5 6 7 8 9 10 11 12 13 14 15 16 17 18 19 20 21 22 23 24 25 26 27 28 29 30 31 32 33 34 35 36 37 38 39 40 41 42 43 44 45 46 47 48 49 50

000
ASUS41 KOKX 290108
RWROKX

REGIONAL WEATHER ROUNDUP
NATIONAL WEATHER SERVICE NEW YORK NY
900 PM EDT TUE JUL 28 2015

NOTE: "FAIR" INDICATES FEW OR NO CLOUDS BELOW 12,000 FEET WITH NO
SIGNIFICANT WEATHER AND/OR OBSTRUCTIONS TO VISIBILITY.

NYZ071-072-176-178-NJZ106-104-290200-
NEW YORK CITY METRO AREA


CITY           SKY/WX    TMP DP  RH WIND       PRES   REMARKS
CENTRAL PARK   PTCLDY    84  62  47 CALM      29.99R
LAGUARDIA APRT PTCLDY    85  62  46 S6        29.95R
KENNEDY INTL   PTCLDY    80  71  74 S9        29.97R
NEWARK/LIBERTY PTCLDY    85  71  63 S7        29.95R HX  90
BRNX BOT. GARD   N/A     81  64  57 E2        29.98R
TETERBORO      CLEAR     85  64  49 S5        29.94R
$$

NYZ177-179-078>081-290200-
LONG ISLAND NEW YORK

CITY           SKY/WX    TMP DP  RH WIND       PRES   REMARKS
FARMINGDALE    CLEAR     80  71  74 SW7       29.97R
ISLIP          PTCLDY    77  73  87 SW6       29.95R
SHIRLEY        PTCLDY    78  73  84 SW6       29.97R
WESTHAMPTON    PTCLDY    77  74  90 SW8       29.98R
MONTAUK POINT    N/A     78  69  73 CALM      29.97R
$$

NYZ052-065-067-290200-
HUDSON VALLEY

CITY           SKY/WX    TMP DP  RH WIND       PRES   REMARKS
WHITE PLAINS   PTCLDY    79  67  66 S3        29.98R
NEWBURGH       PTCLDY    82  70  65 CALM      29.98R
MONTGOMERY     MOCLDY    78  70  76 CALM      29.97R
POUGHKEEPSIE   PTCLDY    81  68  64 CALM      29.95R
ALBANY         MOCLDY    81  66  60 CALM      29.96S
$$

NJZ001-105-106-008-010-013-015-019>022-104-290200-
NEW JERSEY

CITY           SKY/WX    TMP DP  RH WIND       PRES   REMARKS
NEWARK/LIBERTY PTCLDY    85  71  63 S7        29.95R HX  90
TETERBORO      CLEAR     85  64  49 S5        29.94R
CALDWELL       CLEAR     82  61  48 CALM      29.96R
MORRISTOWN     PTCLDY    75  64  69 NW3       29.96R
SOMERVILLE     CLEAR     78  66  66 CALM      29.95R
SUSSEX         CLEAR     75  68  78 W3        30.00R
ANDOVER          N/A     74  69  85 CALM      30.00R
TRENTON        CLEAR     82  67  60 S9        29.96S
MILLVILLE      PTCLDY    77  70  79 SW3       29.99S
ATLANTIC CITY  CLOUDY    78  73  84 S6        29.98S
WRIGHTSTOWN    CLEAR     77  71  82 S1        29.95S
TOMS RIVER     CLEAR     77  73  88 S3        29.98S
BELMAR         CLEAR     81  68  65 SW6       29.97S
$$

PAZ047>061-062-071-290200-
EASTERN PENNSYLVANIA

CITY           SKY/WX    TMP DP  RH WIND       PRES   REMARKS
PHILADELPHIA   PTCLDY    84  71  65 S10       29.97R
ALLENTOWN      CLEAR     80  65  59 SW3       29.98R
SCRANTON       CLEAR     76  67  73 E3        30.01R
$$

CTZ002-004>006-009-010-012-RIZ004-006-007-MAZ004-011-015-290200-
SOUTHERN NEW ENGLAND
 IN CT

CITY           SKY/WX    TMP DP  RH WIND       PRES   REMARKS
BRADLEY INTL   MOCLDY    80  67  64 NW5       29.95R
HARTFORD       PTCLDY    84  64  50 N3        29.94R
DANBURY        CLEAR     75  66  73 CALM      29.99R
WTRBRY/OXFORD  PTCLDY    75  66  73 CALM      30.02R
BRIDGEPORT     CLEAR     82  72  71 SW7       29.95R
MERIDEN        PTCLDY    78  67  68 CALM      29.95R
NEW HAVEN      PTCLDY    81  67  62 CALM      29.95R
CHESTER        FAIR      77  72  83 CALM      29.98R
GROTON         PTCLDY    75  70  84 S3        29.95R
WILLIMANTIC    PTCLDY    81  70  69 CALM      29.96R

 IN RI

CITY           SKY/WX    TMP DP  RH WIND       PRES   REMARKS
PROVIDENCE     MOCLDY    75  68  78 CALM      29.97R
BLOCK ISLAND   PTCLDY    75  70  83 SW14      29.97R
WESTERLY       PTCLDY    73  69  87 CALM      29.96S

 IN MA

CITY           SKY/WX    TMP DP  RH WIND       PRES   REMARKS
BOSTON         PTCLDY    74  69  85 SE5       29.96R
WORCESTER      MOCLDY    74  66  76 NW5       30.00R
WESTFIELD      PTCLDY    74  71  91 S3        29.96R
PROVINCETOWN   PTCLDY    72  63  73 CALM      29.96R
NANTUCKET      FOG       71  69  93 SW5       29.97R VSB 1/4
$$

ANZ330-335-338-340-345-350-353-355-290200-
COASTAL MARINE OBSERVATIONS


STATION/POSITION TIME  SKY/WX   TEMP    WIND        PRES    VSBY  WAVE
                                AIR SEA DIR/SP/G                  HT/PER
                 (UTC)          (F)     (DEG/KT/KT) (MB)    (MI)  (FT/S)
NY HARB ENTRANCE 0050            78 76  210/ 10/ 12 1014.1          2/11
4S FIRE IS       NOT AVBL
20S FIRE ISLAND  0050            76 74  220/ 10/ 14 1014.4          2/11
GREAT SOUTH BAY  0000            78 81  240/ 10/ 12   N/A
23SW MTP         0050            75 75  240/ 10/ 12 1014.0          2/ 8
HUDSON CANYON    NOT AVBL
KINGS POINT      0000            82 70  190/  7/  8 1013.6
CENTRAL LI SOUND NOT AVBL
EASTERN LI SOUND 0000            75 69  100/  6/ 16   N/A
ROBBINS REEF     0000            82     160/ 12/ 13 1013.0
$$


>>>>>>>>>>>>>>>>>>>>>>>>>>>> KEY <<<<<<<<<<<<<<<<<<<<<<<<<<<
>                                                          <
>     SKY/WX - SKY CONDITION/PRESENT WEATHER               <
>     TMP    - TEMPERATURE IN FAHRENHEIT                   <
>     DP     - DEWPOINT IN FAHRENHEIT                      <
>     RH     - RELATIVE HUMIDITY IN PERCENT                <
>     WIND   - DIRECTION AND SPEED IN MPH                  <
>     PRES   - MEAN SEA LEVEL PRESSURE IN INCHES OF HG     <
>     WCI    - WIND CHILL INDEX                            <
>     VSB    - VISIBILITY IN MILES                         <
>     HX     - HEAT INDEX                                  <
>     TC     - TEMPERATURE IN CELSIUS                      <
>     VRB    - VARIABLE WIND DIRECTION                     <
>                                                          <
>>>>>>>>>>>>>>>>>>>>>>>>>>>> KEY <<<<<<<<<<<<<<<<<<<<<<<<<<<





USA.gov is the U.S. government's official web portal to all federal, state and local government web resources and services.